KE6AFE Weather Reports


time (UTC)temp
C
wind
direction
speed
KPH
gust
KPH
rain 1hr
cm
rain 24hr
cm
rain mn
cm
humidity
%
barometer
mb
20260906181032 19 1 0.0 0.0 0.00 0.00 0.00 54 1016.1
20260906180022 19 1 0.0 0.0 0.00 0.00 0.00 57 1016.0
20260906175012 18 1 0.0 0.0 0.00 0.00 0.00 57 1016.1
20260906174002 18 1 0.0 0.0 0.00 0.00 0.00 58 1016.1
20260906172952 18 1 0.0 0.0 0.00 0.00 0.00 60 1015.9
20260906171942 18 1 0.0 0.0 0.00 0.00 0.00 61 1015.9
20260906170932 17 1 0.0 0.0 0.00 0.00 0.00 61 1015.8
20260906165922 17 1 0.0 0.0 0.00 0.00 0.00 62 1015.8
20260906164912 17 1 0.0 0.0 0.00 0.00 0.00 63 1015.7
20260906163902 16 1 0.0 0.0 0.00 0.00 0.00 64 1015.7
20260906162852 16 0 0.0 0.0 0.00 0.00 0.00 63 1015.7
20260906161842 16 2 0.0 0.0 0.00 0.00 0.00 65 1015.7
20260906160832 15 2 0.0 0.0 0.00 0.00 0.00 67 1015.8
20260906155822 15 2 0.0 0.0 0.00 0.00 0.00 67 1015.8
20260906154812 14 2 0.0 0.0 0.00 0.00 0.00 69 1015.8
20260906153802 14 1 0.0 0.0 0.00 0.00 0.00 70 1015.9
20260906152752 13 2 0.0 0.0 0.00 0.00 0.00 70 1015.8
20260906151742 13 2 0.0 0.0 0.00 0.00 0.00 71 1015.8
20260906150732 13 2 0.0 0.0 0.00 0.00 0.00 72 1015.8
20260906145722 13 1 0.0 0.0 0.00 0.00 0.00 72 1015.6
20260906144712 13 2 0.0 0.0 0.00 0.00 0.00 72 1015.6
20260906143702 12 2 0.0 0.0 0.00 0.00 0.00 72 1015.4
20260906142652 12 1 0.0 0.0 0.00 0.00 0.00 72 1015.4
20260906141642 12 2 0.0 0.0 0.00 0.00 0.00 72 1015.3
20260906140632 12 2 0.0 0.0 0.00 0.00 0.00 72 1015.2
20260906135622 12 2 0.0 0.0 0.00 0.00 0.00 72 1015.1
20260906134612 12 2 0.0 0.0 0.00 0.00 0.00 72 1015.0
20260906133602 12 2 0.0 0.0 0.00 0.00 0.00 71 1015.0
20260906132552 12 2 0.0 0.0 0.00 0.00 0.00 72 1014.9
20260906131542 12 2 0.0 0.0 0.00 0.00 0.00 71 1014.9
20260906130532 12 2 0.0 0.0 0.00 0.00 0.00 71 1014.8
20260906125522 12 2 0.0 0.0 0.00 0.00 0.00 70 1014.7
20260906124512 12 2 0.0 0.0 0.00 0.00 0.00 70 1014.8
20260906123502 12 2 0.0 0.0 0.00 0.00 0.00 69 1014.8
20260906122452 12 2 0.0 0.0 0.00 0.00 0.00 68 1014.7
20260906121442 12 2 0.0 0.0 0.00 0.00 0.00 68 1014.7
20260906120432 13 1 0.0 0.0 0.00 0.00 0.00 68 1014.6
20260906115422 13 2 0.0 0.0 0.00 0.00 0.00 67 1014.7
20260906114412 13 2 0.0 0.0 0.00 0.00 0.00 67 1014.7
20260906113402 13 2 0.0 0.0 0.00 0.00 0.00 66 1014.6
20260906112352 13 2 0.0 0.0 0.00 0.00 0.00 66 1014.6
20260906111342 13 2 0.0 0.0 0.00 0.00 0.00 66 1014.6
20260906110332 13 2 0.0 0.0 0.00 0.00 0.00 65 1014.6
20260906105322 13 2 0.0 0.0 0.00 0.00 0.00 64 1014.6
20260906104312 13 2 0.0 0.0 0.00 0.00 0.00 63 1014.6
20260906103302 13 2 0.0 0.0 0.00 0.00 0.00 64 1014.7
20260906102252 13 2 0.0 0.0 0.00 0.00 0.00 64 1014.8
20260906101242 13 2 0.0 0.0 0.00 0.00 0.00 64 1014.8
20260906100232 14 2 0.0 0.0 0.00 0.00 0.00 63 1014.8
20260906095222 14 2 0.0 0.0 0.00 0.00 0.00 62 1014.8
20260906094212 14 2 0.0 0.0 0.00 0.00 0.00 63 1014.8
20260906093202 14 2 0.0 0.0 0.00 0.00 0.00 62 1014.8
20260906092152 14 2 0.0 0.0 0.00 0.00 0.00 61 1014.8
20260906091142 15 2 0.0 0.0 0.00 0.00 0.00 61 1014.9
20260906090132 15 2 0.0 0.0 0.00 0.00 0.00 60 1014.9
20260906085122 15 2 0.0 0.0 0.00 0.00 0.00 59 1014.9
20260906084112 15 0 0.0 0.0 0.00 0.00 0.00 59 1015.0
20260906083102 15 0 0.0 0.0 0.00 0.00 0.00 57 1015.0
20260906082052 15 0 0.0 0.0 0.00 0.00 0.00 57 1015.1
20260906081042 16 0 0.0 0.0 0.00 0.00 0.00 56 1015.2
20260906080032 16 0 0.0 0.0 0.00 0.00 0.00 56 1015.3
20260906075022 16 0 0.0 0.0 0.00 0.00 0.00 55 1015.2
20260906074012 16 0 0.0 0.0 0.00 0.00 0.00 55 1015.1
20260906073002 16 0 0.0 0.0 0.00 0.00 0.00 55 1015.1
20260906071952 16 0 0.0 0.0 0.00 0.00 0.00 54 1015.1
20260906070942 17 0 0.0 0.0 0.00 0.00 0.00 54 1015.1
20260906065932 17 0 0.0 0.0 0.00 0.00 0.00 53 1015.1
20260906064922 17 0 0.0 0.0 0.00 0.00 0.00 52 1015.1
20260906063912 17 0 0.0 0.0 0.00 0.00 0.00 51 1015.1
20260906062902 17 0 0.0 0.0 0.00 0.00 0.00 51 1015.1
20260906061852 18 0 0.0 0.0 0.00 0.00 0.00 50 1015.1
20260906060842 18 0 0.0 0.0 0.00 0.00 0.00 51 1015.1
20260906055832 18 0 0.0 0.0 0.00 0.00 0.00 51 1015.2
20260906054822 18 0 0.0 0.0 0.00 0.00 0.00 52 1015.2
20260906053812 19 0 0.0 0.0 0.00 0.00 0.00 52 1015.2
20260906052802 19 0 0.0 0.0 0.00 0.00 0.00 53 1015.3
20260906051752 19 0 0.0 0.0 0.00 0.00 0.00 54 1015.4
20260906050742 20 0 0.0 0.0 0.00 0.00 0.00 55 1015.4
20260906045732 20 0 0.0 0.0 0.00 0.00 0.00 54 1015.4
20260906044722 20 0 0.0 0.0 0.00 0.00 0.00 54 1015.3
20260906043712 20 0 0.0 0.0 0.00 0.00 0.00 53 1015.3
20260906042702 20 1 0.0 0.0 0.00 0.00 0.00 52 1015.2
20260906041652 21 2 0.0 0.0 0.00 0.00 0.00 50 1015.1
20260906040642 21 2 0.0 0.0 0.00 0.00 0.00 49 1014.9
20260906035632 21 2 0.0 0.0 0.00 0.00 0.00 42 1014.8
20260906034622 21 2 0.0 0.0 0.00 0.00 0.00 41 1014.7
20260906033612 21 2 0.0 0.0 0.00 0.00 0.00 41 1014.5
20260906032602 21 2 0.0 0.0 0.00 0.00 0.00 40 1014.2
20260906031552 22 2 0.0 0.0 0.00 0.00 0.00 39 1014.1
20260906030542 22 2 0.0 0.0 0.00 0.00 0.00 38 1014.0
20260906025532 22 2 0.0 0.0 0.00 0.00 0.00 37 1013.9
20260906024522 23 1 0.0 0.0 0.00 0.00 0.00 36 1013.9
20260906023512 23 1 0.0 0.0 0.00 0.00 0.00 35 1014.0
20260906022502 23 1 0.0 0.0 0.00 0.00 0.00 34 1014.0
20260906021452 24 1 0.0 0.0 0.00 0.00 0.00 33 1014.0
20260906020442 25 1 0.0 0.0 0.00 0.00 0.00 33 1014.0
20260906015432 25 1 0.0 0.0 0.00 0.00 0.00 33 1014.1
20260906014422 26 1 0.0 0.0 0.00 0.00 0.00 32 1014.1
20260906013412 26 2 0.0 0.0 0.00 0.00 0.00 31 1014.1
20260906012402 27 1 0.0 0.0 0.00 0.00 0.00 31 1014.1
20260906011352 27 1 0.0 0.0 0.00 0.00 0.00 30 1014.2
20260906010342 28 1 0.0 0.0 0.00 0.00 0.00 31 1014.1
20260906005332 28 2 0.0 0.0 0.00 0.00 0.00 32 1014.0
20260906004322 28 1 0.0 0.0 0.00 0.00 0.00 31 1013.9
20260906003312 29 1 0.0 0.0 0.00 0.00 0.00 30 1014.0
20260906002305 29 1 0.0 0.0 0.00 0.00 0.00 31 1014.0
20260906001252 30 1 0.0 0.0 0.00 0.00 0.00 31 1013.9
20260906000242 30 1 0.0 0.0 0.00 0.00 0.00 30 1014.0
20260905235232 30 1 0.0 0.0 0.00 0.00 0.00 29 1014.0
20260905234222 30 1 0.0 0.0 0.00 0.00 0.00 29 1014.1
20260905233212 30 1 0.0 0.0 0.00 0.00 0.00 29 1014.1
20260905232202 30 1 0.0 0.0 0.00 0.00 0.00 29 1014.2
20260905231152 30 1 0.0 0.0 0.00 0.00 0.00 29 1014.3
20260905230142 30 1 0.0 0.0 0.00 0.00 0.00 28 1014.5
20260905225132 30 1 0.0 0.0 0.00 0.00 0.00 28 1014.6
20260905224122 30 0 0.0 0.0 0.00 0.00 0.00 28 1014.7
20260905223112 30 1 0.0 0.0 0.00 0.00 0.00 29 1014.7
20260905222102 29 1 0.0 0.0 0.00 0.00 0.00 29 1014.7
20260905221052 29 0 0.0 0.0 0.00 0.00 0.00 30 1014.7
20260905220042 29 1 0.0 0.0 0.00 0.00 0.00 31 1014.8
20260905215032 29 1 0.0 0.0 0.00 0.00 0.00 31 1014.9
20260905214020 28 1 0.0 0.0 0.00 0.00 0.00 31 1015.0
20260905213010 28 1 0.0 0.0 0.00 0.00 0.00 31 1015.0
20260905212000 28 1 0.0 0.0 0.00 0.00 0.00 29 1015.1
20260905210950 27 1 0.0 0.0 0.00 0.00 0.00 27 1015.2
20260905205940 27 0 0.0 0.0 0.00 0.00 0.00 27 1015.1
20260905204930 27 0 0.0 0.0 0.00 0.00 0.00 28 1015.2
20260905203920 27 1 0.0 0.0 0.00 0.00 0.00 27 1015.2
20260905202910 27 1 0.0 0.0 0.00 0.00 0.00 30 1015.3
20260905201900 26 0 0.0 0.0 0.00 0.00 0.00 31 1015.2
20260905200850 26 1 0.0 0.0 0.00 0.00 0.00 33 1015.3
20260905195840 25 0 0.0 0.0 0.00 0.00 0.00 38 1015.4
20260905194830 25 0 0.0 0.0 0.00 0.00 0.00 39 1015.4
20260905193820 24 0 0.0 0.0 0.00 0.00 0.00 40 1015.5
20260905192810 23 0 0.0 0.0 0.00 0.00 0.00 38 1015.6
20260905191800 23 0 0.0 0.0 0.00 0.00 0.00 38 1015.7
20260905190750 22 0 0.0 0.0 0.00 0.00 0.00 40 1015.8
20260905185740 22 0 0.0 0.0 0.00 0.00 0.00 40 1015.8
20260905184730 22 1 0.0 0.0 0.00 0.00 0.00 41 1015.8
20260905183720 22 0 0.0 0.0 0.00 0.00 0.00 43 1015.8
20260905182710 21 0 0.0 0.0 0.00 0.00 0.00 45 1015.8
20260905181700 21 0 0.0 0.0 0.00 0.00 0.00 46 1015.7